Location: Gulgong NSW 2852, Australia
(32.2976°S, 149.5548°E)
Time: 00:25:46
(UTC+11:00)

X-37B - Pass Details

Date: 08 December 2021
Orbit: 334 x 337 km, 45.0° (Epoch: 11 January)

Event Time Altitude Azimuth Distance (km) Brightness Sun altitude
Exits shadow 04:54:22 - 357° (N) 1,482 3.2 -10.4°
Reaches altitude 10° 04:55:07 10° 7° (N) 1,275 2.9 -10.3°
Maximum altitude 04:56:50 15° 44° (NE) 1,045 2.9 -10.0°
Drops below altitude 10° 04:58:33 10° 81° (E) 1,286 3.9 -9.7°
Sets 05:01:09 0° 106° (ESE) 2,133 6.0 -9.3°
